Location: *
(34.6903°N, 135.5184°E)
Time: 03:44:56
(UTC+00:00)

Abrixas rocket - Pass Details

Date: 22 September 2019
Orbit: 361 x 370 km, 48.4° (Epoch: 17 October)

Event Time Altitude Azimuth Distance (km) Brightness Sun altitude
Exits shadow 19:14:36 54° 149° (SSE) 447 2.4 -19.4°
Maximum altitude 19:14:42 54° 139° (SE) 445 2.4 -19.4°
Drops below altitude 10° 19:17:39 10° 61° (ENE) 1,345 5.9 -18.8°
Sets 19:19:42 0° 56° (ENE) 2,193 7.2 -18.4°
